Retour au catalogue

STARLINK-31326

ActifCommunicationsVLEO
NORAD 58877·PAYLOAD·🇺🇸 United States

Lancé Jan 29, 2024 depuis Vandenberg Space Force Base

Loading…

Prochains Passages (prochaines 24 heures)

TLE

FraisSource: CelesTrak SupGP

Époque: Sep 15, 2026, 03:15 UTC

1 58877C 24020B   26258.13590278  .00023071  00000+0  74185-3 0  2589
2 58877  53.1574 161.3066 0001324  86.8921 231.0346 15.31692790    12

Suivez STARLINK-31326 en temps réel avec AllMySat

Download on the App Store